Regional Weather Roundup
Issued by NWS Cleveland, OH

Home | Current Version | Previous Version | Graphics & Text | Print | Product List | Glossary On
Versions: 1 2 3 4 5 6 7 8 9 10 11 12 13 14 15 16 17 18 19 20 21 22 23 24 25 26 27 28 29 30 31 32 33 34 35 36 37 38 39 40 41 42 43 44 45 46 47 48 49 50
000
ASUS41 KCLE 261310
RWRCLE
OHIO REGIONAL WEATHER ROUNDUP
NATIONAL WEATHER SERVICE CLEVELAND, OH
900 AM EDT SUN APR 26 2015

NOTE: "FAIR" INDICATES FEW OR NO CLOUDS BELOW 12,000 FEET WITH NO
SIGNIFICANT WEATHER AND/OR OBSTRUCTIONS TO VISIBILITY.

OHZ001>008-015>018-024>027-034-035-043-044-261400-
   NORTHWEST OHIO

CITY           SKY/WX    TMP DP  RH WIND       PRES   REMARKS
DEFIANCE       SUNNY     43  29  57 NE16      29.90R
FINDLAY        SUNNY     43  33  68 N13       29.86R
TOLEDO EXPRESS SUNNY     42  28  57 N12       29.89R
TOLEDO EXEC    SUNNY     44  30  57 NE10      29.90R
LIMA           SUNNY     40  33  76 N14G22    29.86R
$$

OHZ009>014-019>023-028>033-038-089-261400-
   NORTHEAST OHIO

CITY           SKY/WX    TMP DP  RH WIND       PRES   REMARKS
CLE-HOPKINS    SUNNY     43  35  73 N8        29.87R
CLE-LAKEFRONT  SUNNY     43  35  73 N12       29.85R
CUY CO. ARPT   NOT AVBL
LORAIN-ELYRIA  SUNNY     42  33  70 NE10      29.86R
ASHTABULA      SUNNY     42  31  64 N6        29.85R
AKRON-CANTON   SUNNY     45  27  49 NE15      29.80S
WOOSTER        SUNNY     43  29  57 NE13      29.82R
MANSFIELD      SUNNY     43  33  68 N10       29.82R
YOUNGSTOWN     MOSUNNY   45  27  49 NE10      29.81R
$$

OHZ042-051>053-060>062-070>072-077>081-261400-
  SOUTHWEST OHIO

CITY           SKY/WX    TMP DP  RH WIND       PRES   REMARKS
CINC-COVINGTON MOSUNNY   45  33  63 N12       29.80R
CINC-LUNKEN    SUNNY     46  35  65 N9        29.82R
HAMILTON       SUNNY     45  34  65 NE16      29.83R
DAYTON         MOSUNNY   43  34  70 NE16      29.83R
WRIGHT-PAT AFB SUNNY     44  33  65 N15       29.82R
DAYTON GENERAL PTSUNNY   41  32  70 NE14      29.80R
WILMINGTON     PTSUNNY   41  33  73 N14       29.80R
$$

OHZ036-037-039>041-045>050-054>059-063>069-073>076-082>088-261400-
  CENTRAL AND SOUTHEAST OHIO

CITY           SKY/WX    TMP DP  RH WIND       PRES   REMARKS
COLUMBUS       MOSUNNY   43  32  65 NE13      29.79R
OSU AIRPORT    MOSUNNY   43  32  65 N16       29.80R
BOLTON FIELD   NOT AVBL
RICKENBACK AFB CLOUDY    42  32  68 N12       29.79R
NEWARK         PTSUNNY   44  32  62 VRB6G16   29.79R
MARION         SUNNY     42  35  76 NE18      29.83R
LANCASTER      PTSUNNY   43  34  70 N12       29.79R
ZANESVILLE     CLOUDY    44  30  57 NE8       29.78R
NEW PHILLY     SUNNY     46  29  51 N6        29.80R
$$



USA.gov is the U.S. government's official web portal to all federal, state and local government web resources and services.